Temperature
16 13 13 14 14 14 15 15 14 15 16 15 14 15 15 16 16 15 15 16 16 16 16 15 15 15 15 15 14 14 13 13 12 11 11 10 10 10 9 9 9 9 8 8
13 13 14 15 14 14 14 14 14 15 16 15 14 14 14 14 15 16 15 15 15 15 15 15 15 15 14 14 14 13 13 12 12 11 11 10 10 10 10 9 9 9 9 8
13 14 15 15 14 14 14 14 14 15 15 15 15 14 14 14 15 15 15 15 15 15 15 15 14 14 14 14 14 13 13 12 12 11 11 11 10 10 10 9 9 9 9 8
13 14 15 15 15 14 14 15 15 15 14 13 14 12 13 14 14 13 13 13 14 14 15 15 14 14 14 14 13 13 12 12 12 11 11 11 11 10 10 10 9 9 9 8
13 14 14 15 15 15 15 16 16 15 14 13 12 13 13 14 13 12 11 12 13 14 15 15 14 14 13 13 13 12 12 12 12 11 11 11 11 10 10 9 9 9 8 8
13 15 15 15 16 15 15 15 14 11 11 12 12 12 12 13 13 13 11 12 13 14 14 14 14 13 13 12 12 12 12 12 12 11 11 11 11 10 10 9 9 9 8 8
14 14 15 15 15 15 14 13 12 12 11 11 12 12 13 14 14 13 12 12 13 13 13 13 13 13 12 12 12 12 12 12 11 11 11 11 10 10 10 9 9 8 8 8
12 13 14 14 14 13 13 13 12 12 11 11 13 12 14 15 14 15 15 13 12 13 13 13 13 13 13 12 12 12 12 12 11 11 11 10 10 10 9 9 8 8 8 7
12 13 14 14 14 14 12 12 13 12 12 12 12 13 14 15 14 13 13 12 11 12 13 14 14 13 13 13 12 12 12 11 11 11 10 10 10 9 9 8 8 7 7 7
13 13 14 14 14 14 13 12 11 11 11 11 12 13 14 15 14 12 11 11 11 12 13 13 14 13 13 13 12 11 11 11 11 10 10 10 9 9 8 8 7 7 7 6
13 12 13 13 13 13 13 13 12 11 10 11 12 13 14 14 13 12 11 12 12 12 13 14 14 13 13 12 11 11 11 10 10 10 10 9 9 8 8 7 7 6 6 6
12 11 11 12 13 13 13 12 12 11 11 10 10 13 14 14 13 12 13 13 13 13 14 14 14 13 12 12 11 11 10 10 10 9 9 9 8 8 7 7 6 6 5 5
13 11 11 12 12 12 12 12 12 12 11 10 10 13 14 14 14 14 14 14 14 13 13 13 13 13 12 12 11 10 10 10 9 9 8 8 8 7 7 6 6 5 5 5
13 11 12 12 12 12 11 12 12 12 11 10 11 13 14 14 14 14 14 15 14 14 13 13 13 12 12 11 11 10 10 9 9 8 8 7 7 7 6 6 5 5 4 4
12 11 11 12 13 12 12 12 12 12 12 11 12 13 14 14 13 14 15 15 14 13 13 13 13 12 12 11 10 10 9 9 8 8 7 7 6 6 5 5 5 4 4 3
11 11 12 13 13 12 12 12 12 12 12 12 12 12 13 14 15 15 15 14 14 14 14 13 13 12 11 11 10 9 9 8 8 7 7 6 6 5 5 4 4 4 3 3
10 11 11 11 12 12 11 12 12 12 12 12 13 14 14 13 12 13 15 15 15 15 15 14 13 12 12 11 10 9 8 8 7 7 6 6 5 5 4 4 3 3 2 2
10 10 9 9 11 10 12 12 13 13 12 12 12 12 13 13 14 15 16 16 15 15 14 13 13 12 11 10 9 9 8 7 7 6 6 5 5 4 4 3 3 2 2 2
10 10 8 8 9 9 11 12 12 12 12 12 12 12 12 13 12 12 14 15 15 15 14 13 12 11 10 9 9 8 7 7 6 6 5 5 4 3 3 3 2 2 1 1
9 9 8 7 8 9 11 12 13 13 12 12 12 11 11 10 10 11 14 14 13 13 12 12 11 10 9 8 8 7 7 6 6 5 4 4 3 3 2 2 2 1 1 0
8 8 8 7 8 8 10 11 12 12 12 13 13 12 11 10 12 13 13 13 12 12 11 10 10 9 8 8 7 6 6 5 5 4 4 3 3 2 2 1 1 1 0 -0
9 8 7 7 7 8 10 10 11 12 13 13 13 13 12 12 12 12 12 12 11 10 10 9 9 8 7 7 6 6 5 5 4 4 3 3 2 2 1 1 1 0 -0 -1
9 10 9 9 10 10 12 13 14 14 14 14 14 14 13 12 12 11 11 10 10 9 9 8 7 7 6 6 5 5 4 4 3 3 3 2 2 1 1 0 0 -0 -1 -1
7 8 8 8 8 9 12 13 13 13 14 14 14 13 13 12 11 10 10 9 8 8 7 7 6 6 5 5 5 4 4 3 3 2 2 2 1 1 0 -0 -1 -1 -1 -2
8 7 7 8 8 9 10 12 13 12 12 12 12 12 12 11 11 10 9 8 7 7 6 6 6 5 5 4 4 3 3 2 2 2 1 1 1 0 -0 -1 -1 -2 -2 -3
6 7 8 9 8 8 10 13 12 12 12 12 12 11 10 10 10 9 8 7 7 6 5 5 5 4 4 3 3 3 2 2 1 1 1 0 0 -0 -1 -1 -1 -2 -3 -3
Wind_Speed
5 5 7 11 12 9 7 6 9 9 7 6 11 14 14 10 8 10 9 10 10 8 5 4 5 6 7 8 9 9 10 9 8 6 5 5 4 2 2 3 4 5 5 5
4 8 13 10 8 7 8 8 9 9 5 5 8 13 13 11 11 12 14 14 12 9 7 6 6 5 6 7 8 8 9 9 8 6 5 4 4 2 2 1 1 2 2 3
12 8 9 9 9 8 9 9 8 8 7 5 5 10 9 8 7 8 11 13 13 14 12 9 8 7 7 7 8 8 8 9 8 7 6 5 4 3 2 1 0 0 1 2
9 9 6 8 9 10 9 9 8 6 3 5 2 6 9 6 5 7 10 11 12 11 10 10 9 8 8 7 7 8 8 8 8 8 7 7 5 3 3 2 1 1 0 1
9 9 11 12 11 11 9 6 5 3 4 4 3 5 10 4 7 10 11 13 13 12 13 12 10 9 8 7 7 8 8 8 7 7 8 8 5 3 2 2 1 1 2 1
9 6 9 12 8 9 6 4 4 5 3 5 7 8 9 6 10 9 11 13 13 13 12 11 9 9 7 7 7 8 9 7 7 8 8 8 8 6 5 3 2 0 1 1
6 7 5 5 6 4 6 6 1 3 1 8 5 6 11 11 10 11 16 18 15 14 13 13 12 11 10 9 9 8 9 7 7 8 7 7 7 7 6 4 3 1 0 1
9 8 9 8 9 9 8 10 8 7 6 6 4 8 9 8 7 8 11 14 14 14 14 15 15 13 12 11 10 9 9 8 7 8 7 6 6 5 4 4 3 3 2 2
11 9 5 8 7 13 8 8 8 5 3 4 7 7 9 4 2 4 10 13 16 16 15 15 14 13 12 12 11 10 10 8 8 8 7 6 6 5 4 3 2 2 2 2
9 6 3 2 5 4 9 9 6 6 6 6 7 6 6 7 6 6 11 16 16 15 14 14 14 14 12 11 9 9 9 9 8 8 7 6 5 5 4 3 2 2 2 1
9 7 2 3 9 12 8 6 6 6 5 6 5 7 7 8 8 11 14 15 17 18 18 16 14 13 12 10 10 9 9 8 8 8 6 6 5 4 4 3 2 2 2 2
9 6 5 8 5 6 8 10 9 7 7 6 5 8 6 6 7 9 12 12 14 16 15 14 13 13 12 12 11 11 10 9 8 8 7 6 5 4 3 2 2 2 2 3
12 8 5 1 2 3 6 7 9 6 4 6 6 8 5 2 2 6 9 11 12 13 12 12 12 14 14 14 13 12 11 10 8 8 7 6 5 4 3 3 3 2 3 4
12 7 9 12 8 9 7 9 11 10 7 7 9 8 6 5 5 6 8 10 11 13 14 14 14 14 14 13 13 12 10 9 9 8 7 6 5 5 4 3 3 3 3 5
9 8 8 7 6 7 9 11 13 14 14 11 10 11 12 10 10 9 8 8 9 11 13 15 16 14 13 12 11 11 10 9 8 8 7 6 5 4 4 3 4 4 4 6
6 7 7 6 7 8 8 10 12 14 13 13 11 12 10 8 6 7 8 10 12 13 15 15 14 14 14 14 13 11 10 9 8 8 6 5 4 4 4 4 4 5 6 6
7 8 7 5 4 3 10 10 11 9 9 11 16 18 10 7 9 10 11 11 13 13 13 14 15 15 15 14 13 13 10 8 8 7 6 5 4 4 4 4 4 6 6 6
9 8 6 5 4 11 10 8 11 11 11 13 11 10 10 12 9 7 8 11 11 10 11 12 12 11 10 10 10 10 9 9 8 6 5 5 4 4 4 4 6 6 6 7
7 8 6 6 7 9 8 6 8 10 10 10 13 11 7 3 1 3 4 7 8 9 8 9 10 10 11 12 11 11 9 7 6 6 5 5 5 5 5 6 7 6 6 7
4 6 6 6 7 9 9 7 6 6 8 8 10 11 8 8 4 7 4 4 5 6 7 9 10 10 11 10 11 10 8 7 6 6 5 5 5 5 6 7 7 6 6 7
7 5 7 7 8 8 8 4 7 7 10 6 8 9 10 10 8 4 6 6 7 8 9 10 11 10 10 9 10 9 7 6 6 4 4 4 5 5 6 6 6 6 7 7
13 10 9 8 8 10 7 8 10 9 3 4 5 7 9 6 5 7 7 8 9 9 9 10 10 9 7 8 9 7 6 5 4 3 4 4 5 5 5 6 7 7 7 8
12 12 9 11 11 6 9 11 8 6 6 6 6 6 8 8 7 7 7 9 9 9 9 8 10 9 6 6 7 6 5 4 3 3 4 5 5 5 5 6 7 7 6 7
6 4 6 6 8 7 7 6 5 7 7 6 7 8 10 9 9 9 9 8 8 8 8 8 9 8 6 4 5 5 4 4 3 4 5 5 5 6 6 5 6 6 7 7
9 9 7 7 5 3 5 8 8 6 6 6 6 7 9 11 10 10 10 9 8 7 6 7 8 7 6 4 4 3 3 3 4 5 5 5 6 6 7 6 6 8 8 9
6 9 10 9 9 8 8 8 9 9 8 9 8 7 6 9 11 10 9 8 8 8 7 7 6 6 5 4 4 3 3 4 4 5 6 5 5 6 6 7 9 12 13 18
Wind_Direction
160 137 197 206 201 206 213 237 262 266 259 220 236 251 258 248 230 217 203 192 183 178 173 135 114 113 116 123 129 135 140 146 143 140 141 138 145 142 135 164 187 197 203 208
133 218 218 209 206 211 226 247 264 280 277 227 254 264 261 245 225 211 198 190 181 171 163 147 130 121 126 133 132 134 140 145 146 143 139 137 136 132 129 131 146 190 205 215
191 215 211 207 216 218 231 228 243 259 305 311 295 293 274 265 227 208 194 184 178 172 168 161 147 139 136 141 145 142 140 139 138 132 118 99 81 68 64 66 57 283 215 214
219 229 209 202 214 201 236 228 222 238 262 281 271 288 284 269 250 210 192 181 181 174 166 162 155 152 154 155 144 135 135 133 134 134 136 140 144 156 183 181 202 322 322 208
224 207 205 216 217 192 212 208 196 209 206 269 247 234 280 270 243 229 204 192 185 177 170 166 162 158 153 148 142 138 131 130 133 133 139 138 138 148 138 114 101 28 359 349
224 223 202 209 209 191 170 105 57 49 88 266 223 197 273 236 221 218 200 194 186 176 168 159 151 144 142 143 141 141 136 135 136 134 137 141 145 145 137 134 132 84 353 348
235 240 214 158 136 138 132 117 22 309 282 248 215 200 248 250 229 206 193 191 184 174 166 161 160 160 158 159 157 152 147 147 147 141 143 148 150 151 154 158 165 171 241 286
199 236 207 185 170 171 179 160 177 208 227 269 225 221 251 262 265 218 188 175 172 174 173 172 172 169 167 167 165 161 158 155 155 151 151 150 150 149 156 165 171 186 207 235
190 227 232 200 177 152 160 195 180 156 239 265 269 272 297 277 346 146 155 163 178 181 180 178 175 174 172 172 173 169 164 160 162 160 154 155 157 157 163 169 171 190 221 246
168 208 239 186 115 157 159 160 139 165 198 235 270 263 250 258 233 187 177 182 185 183 183 182 180 179 178 175 171 167 166 166 165 163 162 159 163 165 164 161 183 215 245 258
167 181 217 172 182 180 157 168 174 175 185 184 243 263 231 238 220 200 199 193 187 188 189 187 185 181 174 168 167 169 168 163 164 165 160 155 163 163 159 171 203 225 248 273
169 152 198 232 242 197 180 180 164 176 220 199 201 264 273 260 227 202 201 197 194 194 192 186 180 174 174 174 173 173 171 168 169 165 159 162 163 161 166 190 220 229 258 277
163 157 159 298 272 187 204 203 191 178 165 183 193 257 298 316 224 206 203 199 195 192 188 181 179 181 182 180 177 175 174 171 166 160 158 161 167 174 191 211 229 246 268 286
158 156 183 197 201 183 198 208 196 185 203 218 221 242 275 268 252 231 214 205 196 193 190 187 188 188 185 181 178 174 173 168 163 160 162 171 184 193 205 217 236 256 270 281
151 180 195 207 203 175 199 205 198 204 211 213 229 230 243 241 236 234 222 202 193 195 194 194 193 189 182 177 174 171 169 166 162 161 168 184 192 197 206 225 247 263 273 276
141 169 179 215 215 205 223 223 209 214 220 227 244 254 244 243 229 230 220 202 200 203 201 197 191 183 181 178 173 168 167 165 159 164 178 185 191 203 221 239 255 267 274 277
159 151 163 216 220 225 244 217 207 210 210 204 229 243 241 235 226 223 219 208 207 206 199 192 189 186 182 177 170 168 166 158 160 169 180 189 198 216 236 249 259 266 270 272
159 156 159 175 171 231 243 210 200 209 225 214 221 235 229 229 231 231 215 205 209 203 194 187 179 173 166 159 155 152 152 157 163 173 188 199 206 227 244 252 259 264 265 269
162 156 150 164 211 257 282 235 190 201 244 224 225 238 233 194 101 295 241 206 201 192 180 171 163 154 149 151 150 145 150 155 165 183 200 209 212 228 243 254 261 264 267 272
152 148 152 165 194 228 235 223 182 159 254 239 211 220 204 145 190 249 216 169 153 141 139 138 136 134 140 145 142 144 154 162 183 197 207 214 216 225 241 253 262 264 264 269
167 171 183 185 213 248 244 218 126 180 238 229 201 202 182 189 209 189 136 126 130 129 130 131 131 135 142 141 138 145 158 183 196 197 207 219 226 235 247 257 262 269 274 278
181 186 194 183 211 241 221 151 182 213 194 175 180 181 176 176 135 133 135 134 132 127 128 129 128 129 134 138 140 151 178 191 187 194 214 233 244 252 259 262 272 274 277 282
197 194 190 199 216 214 187 196 209 174 177 185 174 170 153 149 157 152 147 143 138 136 134 130 132 131 135 142 146 162 186 183 187 208 234 248 258 260 261 264 274 282 279 279
232 183 169 212 240 224 213 213 200 185 189 182 169 160 157 159 160 155 151 149 144 139 137 134 134 139 149 155 158 173 184 186 195 228 247 255 262 270 270 267 266 271 275 278
194 171 181 216 234 205 230 213 196 177 158 147 146 161 165 155 159 161 160 159 153 144 139 140 146 154 164 165 175 188 192 188 216 241 253 261 261 266 274 272 264 268 259 264
187 174 182 210 202 187 213 207 180 169 175 169 156 153 159 161 160 157 158 156 150 147 142 143 149 158 171 177 198 215 212 206 222 248 258 260 265 269 271 280 288 280 278 287
Height
1516 1523 1525 1523 1523 1524 1526 1527 1528 1522 1514 1515 1515 1510 1503 1501 1502 1501 1501 1502 1503 1505 1507 1508 1509 1510 1512 1514 1517 1520 1523 1526 1529 1532 1534 1536 1538 1539 1541 1541 1542 1543 1543 1543
1519 1521 1514 1514 1517 1521 1523 1527 1525 1519 1512 1512 1512 1507 1499 1495 1494 1493 1494 1496 1498 1501 1503 1505 1507 1508 1510 1513 1516 1518 1521 1524 1527 1530 1532 1534 1536 1537 1538 1539 1539 1540 1540 1540
1514 1510 1508 1513 1516 1519 1520 1522 1520 1519 1513 1509 1510 1507 1497 1489 1487 1488 1489 1491 1494 1496 1499 1502 1504 1506 1509 1511 1514 1517 1520 1522 1525 1528 1530 1532 1534 1535 1536 1537 1537 1537 1537 1537
1508 1505 1505 1509 1511 1514 1518 1512 1513 1514 1519 1522 1515 1521 1499 1490 1486 1485 1485 1487 1490 1493 1496 1499 1502 1504 1507 1510 1513 1516 1518 1521 1524 1526 1528 1530 1531 1532 1533 1534 1534 1534 1534 1534
1503 1499 1502 1504 1504 1506 1509 1506 1508 1510 1516 1521 1518 1520 1501 1490 1488 1483 1482 1483 1486 1490 1493 1496 1499 1503 1506 1509 1512 1514 1517 1520 1522 1524 1526 1528 1529 1531 1531 1532 1532 1532 1532 1531
1496 1493 1494 1495 1496 1499 1502 1507 1511 1518 1521 1527 1516 1520 1505 1489 1480 1476 1477 1480 1483 1487 1491 1494 1498 1501 1505 1508 1511 1513 1516 1518 1521 1523 1525 1526 1528 1528 1529 1529 1529 1529 1529 1529
1496 1492 1489 1490 1496 1498 1502 1514 1526 1526 1532 1525 1509 1511 1496 1473 1469 1468 1469 1473 1478 1483 1487 1491 1495 1498 1502 1505 1509 1512 1514 1517 1519 1521 1523 1524 1526 1526 1527 1527 1527 1527 1526 1526
1499 1497 1487 1486 1489 1496 1501 1506 1522 1528 1527 1517 1504 1506 1483 1466 1463 1462 1465 1470 1476 1481 1484 1488 1491 1495 1499 1503 1507 1509 1512 1515 1517 1519 1521 1522 1523 1524 1525 1525 1524 1524 1523 1523
1490 1491 1480 1479 1480 1487 1499 1503 1502 1513 1513 1515 1504 1491 1475 1463 1462 1462 1465 1469 1473 1477 1481 1485 1489 1493 1497 1500 1504 1507 1510 1513 1515 1517 1519 1520 1521 1522 1522 1522 1521 1521 1520 1519
1478 1486 1480 1478 1480 1483 1487 1493 1505 1511 1517 1517 1504 1492 1481 1466 1464 1464 1465 1467 1470 1474 1479 1482 1486 1490 1494 1498 1502 1505 1508 1511 1513 1515 1516 1517 1518 1519 1519 1519 1518 1518 1517 1516
1472 1482 1483 1480 1481 1483 1487 1491 1494 1502 1506 1511 1508 1492 1466 1462 1460 1461 1461 1463 1466 1470 1474 1478 1482 1487 1491 1495 1499 1502 1505 1508 1510 1512 1513 1515 1515 1516 1516 1516 1515 1514 1513 1512
1466 1478 1484 1480 1474 1473 1476 1480 1488 1499 1500 1500 1501 1488 1458 1457 1456 1456 1458 1461 1464 1467 1471 1475 1479 1484 1488 1491 1495 1498 1501 1504 1507 1509 1510 1511 1512 1512 1512 1512 1512 1510 1509 1508
1460 1473 1484 1483 1481 1476 1476 1476 1477 1482 1488 1496 1498 1482 1457 1455 1455 1456 1457 1459 1462 1465 1469 1472 1476 1479 1483 1486 1490 1494 1497 1500 1503 1505 1507 1508 1508 1509 1509 1508 1507 1506 1505 1503
1449 1462 1468 1472 1469 1468 1472 1470 1471 1478 1486 1488 1484 1473 1460 1456 1455 1455 1456 1457 1459 1461 1464 1467 1470 1474 1478 1482 1486 1489 1493 1497 1499 1501 1503 1504 1504 1505 1505 1504 1503 1502 1500 1498
1445 1456 1458 1457 1456 1460 1461 1461 1464 1468 1469 1474 1469 1466 1457 1453 1453 1452 1452 1454 1456 1458 1460 1462 1465 1469 1473 1477 1481 1485 1489 1492 1495 1497 1499 1500 1500 1500 1500 1499 1498 1497 1495 1492
1444 1451 1454 1455 1454 1456 1457 1456 1458 1459 1460 1462 1461 1458 1448 1447 1448 1448 1449 1450 1451 1452 1454 1457 1460 1464 1467 1472 1476 1481 1485 1488 1491 1493 1495 1496 1496 1496 1495 1494 1493 1491 1489 1487
1444 1449 1455 1459 1453 1453 1458 1451 1452 1453 1451 1453 1454 1447 1443 1445 1445 1444 1444 1445 1445 1447 1449 1452 1455 1458 1462 1467 1472 1476 1481 1484 1487 1489 1490 1491 1491 1491 1490 1489 1488 1486 1483 1480
1441 1447 1454 1459 1458 1463 1445 1437 1438 1441 1441 1440 1439 1437 1437 1437 1437 1438 1439 1440 1441 1443 1445 1448 1451 1455 1459 1464 1469 1474 1477 1480 1483 1485 1486 1486 1486 1486 1485 1484 1482 1480 1477 1474
1434 1442 1453 1461 1460 1452 1443 1434 1435 1438 1437 1432 1433 1432 1432 1434 1435 1435 1436 1437 1438 1440 1442 1445 1448 1452 1456 1461 1466 1470 1474 1476 1479 1480 1481 1482 1481 1480 1479 1478 1476 1473 1470 1466
1434 1436 1448 1457 1456 1451 1437 1427 1425 1431 1436 1426 1426 1427 1429 1432 1438 1434 1432 1434 1436 1438 1440 1443 1446 1450 1455 1459 1463 1467 1470 1472 1474 1476 1476 1477 1476 1475 1473 1471 1469 1466 1463 1459
1435 1439 1444 1449 1448 1440 1427 1423 1425 1437 1430 1420 1419 1421 1424 1427 1428 1429 1430 1432 1434 1437 1439 1442 1445 1449 1453 1457 1461 1464 1467 1469 1470 1471 1471 1471 1471 1469 1467 1465 1462 1459 1455 1452
1422 1432 1438 1442 1444 1437 1419 1421 1423 1419 1416 1416 1417 1418 1420 1423 1425 1426 1428 1430 1433 1435 1439 1442 1445 1449 1452 1456 1459 1461 1464 1465 1466 1466 1466 1466 1465 1463 1461 1458 1455 1452 1448 1444
1410 1410 1415 1418 1417 1411 1410 1411 1411 1412 1413 1414 1416 1417 1419 1421 1423 1425 1427 1430 1432 1435 1438 1441 1445 1448 1451 1454 1457 1459 1460 1461 1461 1461 1461 1460 1459 1457 1454 1451 1448 1444 1441 1436
1405 1403 1408 1411 1408 1406 1405 1406 1407 1409 1411 1412 1414 1416 1417 1419 1421 1424 1426 1429 1432 1435 1438 1441 1444 1447 1450 1452 1454 1455 1456 1456 1456 1456 1455 1454 1452 1450 1447 1444 1441 1437 1433 1429
1395 1399 1402 1405 1402 1402 1402 1402 1404 1406 1408 1410 1412 1414 1416 1417 1419 1422 1425 1428 1431 1434 1437 1440 1443 1445 1448 1450 1451 1452 1452 1452 1451 1450 1449 1447 1445 1443 1439 1436 1434 1429 1426 1422
1389 1391 1395 1396 1394 1396 1396 1397 1400 1403 1405 1407 1410 1412 1414 1416 1418 1420 1423 1427 1430 1433 1436 1439 1441 1443 1445 1446 1447 1448 1447 1447 1446 1444 1443 1441 1438 1435 1432 1428 1424 1421 1418 1414